sat.trackr.live / text

‹ back to catalog

UNKNOWN

NORAD 81069

UNKNOWN UNKNOWN UNKNOWN

§ Identity

Operator
Country
Launch date
Launch site
Launch vehicle
Mass (kg)
RCS (m²)

External: N2YO · Heavens-Above

§ Orbital elements

Epoch: 2026-05-23T11:29:48.852096Z

Period
105.75 min
Inclination
100.3836°
Eccentricity
0.0069634
Mean motion
13.61656406 rev/d
Perigee alt
978.1 km
Apogee alt
1,081.3 km
Semi-major
7,407.8 km
B*
3.3768e-3
RAAN
59.5469°
Arg perigee
7.1100°
Mean anomaly
353.1010°
Rev number
53,793

§ Raw data

UNKNOWN1 81069U          26143.47903764  .00002581  00000+0  33768-2 0  99942 81069 100.3836  59.5469 0069634   7.1100 353.1010 13.61656406537930

JSON: /api/v1/satellites/81069 · /tle

For live sub-satellite position, see the globe view (requires WebGL).

§ Visibility from observer

Set your observer location to see the next 7 days of passes ≥ 10°. The values pass through the URL so the page stays shareable.

No JS? Fill the form by hand. The geolocation button needs JavaScript.